Regional Weather Roundup
Issued by NWS

Home | Current Version | Previous Version | Graphics & Text | Print | Product List | Glossary On
Versions: 1 2 3 4 5 6 7 8 9 10 11 12 13 14 15 16 17 18 19 20 21 22 23 24 25 26 27 28 29 30 31 32 33 34 35 36 37 38 39 40 41 42 43 44 45 46 47 48 49 50
000
ASUS43 KLMK 201502
RWRKY
KENTUCKY REGIONAL WEATHER ROUNDUP
NATIONAL WEATHER SERVICE LOUISVILLE KY
1100 AM EDT SUN MAY 20 2018

NOTE "FAIR" INDICATES FEW OR NO CLOUDS BELOW 12,000 FEET
WITH NO SIGNIFICANT WEATHER AND/OR OBSTRUCTIONS TO VISIBILITY.

KYZ001>023-026-027-061>063-070>075-201600-
WESTERN AND SOUTH CENTRAL KENTUCKY

CITY           SKY/WX    TMP DP  RH WIND       PRES   REMARKS
PADUCAH        FAIR      77  67  71 VRB3      30.10S
HENDERSON      NOT AVBL
OWENSBORO      FAIR      79  66  64 VRB5      30.12R
HOPKINSVILLE   FAIR      80  65  59 S6        30.13R
BOWLING GREEN  FAIR      82  65  56 CALM      30.13R
GLASGOW        NOT AVBL
$$

KYZ024-025-028>034-038-045-046-053-201600-
NORTH CENTRAL KENTUCKY

CITY           SKY/WX    TMP DP  RH WIND       PRES   REMARKS
LOUISVILLE/SDF FAIR      81  64  56 W9        30.10S
LOUISVILLE/LOU FAIR      80  66  62 W7        30.11S
FORT KNOX      FAIR      78  67  68 W8        30.13S
$$

KYZ035>037-039>044-047>052-055>060-089>105-201600-
NORTHEAST KENTUCKY

CITY           SKY/WX    TMP DP  RH WIND       PRES   REMARKS
LEXINGTON      FAIR      77  69  76 S8        30.13R
COVINGTON      PTSUNNY   77  66  68 W5        30.10R
FRANKFORT      FAIR      80  64  58 VRB5      30.11R
$$

KYZ054-064>069-076>088-106>120-201600-
SOUTHEAST KENTUCKY

CITY           SKY/WX    TMP DP  RH WIND       PRES   REMARKS
JACKSON        FAIR      75  68  78 VRB3      30.15F
LONDON         FAIR      77  64  64 W7        30.15F
SOMERSET       NOT AVBL
MIDDLESBORO    FAIR      71  68  90 CALM      30.17S
MONTICELLO     FAIR      81  66  60 W10       30.17R
$$




USA.gov is the U.S. government's official web portal to all federal, state and local government web resources and services.